Regional Weather Roundup
Issued by NWS

Home | Current Version | Previous Version | Graphics & Text | Print | Product List | Glossary On
Versions: 1 2 3 4 5 6 7 8 9 10 11 12 13 14 15 16 17 18 19 20 21 22 23 24 25 26 27 28 29 30 31 32 33 34 35 36 37 38 39 40 41 42 43 44 45 46 47 48 49 50
383
ASUS43 KMPX 261201
RWRMN
WEATHER ROUNDUP FOR MINNESOTA
NATIONAL WEATHER SERVICE TWIN CITIES/CHANHASSEN MN
700 AM CDT WED JUL 26 2017


NOTE: "FAIR" INDICATES FEW OR NO CLOUDS BELOW 12,000 FEET WITH NO
SIGNIFICANT WEATHER AND/OR OBSTRUCTIONS TO VISIBILITY. N/A MEANS
CURRENT SKY AND/OR WEATHER CONDITIONS ARE NOT AVAILABLE.

MNZ060>063-068>070-261300-
   Twin Cities Metro

CITY           SKY/WX    TMP DP  RH WIND       PRES   REMARKS
TWIN CITIES    CLOUDY    73  69  87 CALM      29.97R
6HR MIN TEMP:  72; 6HR MAX TEMP:  78; 6HR PCP:  0.43;

ST PAUL        CLOUDY    72  71  97 CALM      29.96F
CRYSTAL        CLOUDY    71  67  87 SE8       29.96R
BLAINE         CLOUDY    73  73 100 NE6       29.96F
LAKEVILLE      CLOUDY    66  66 100 S7        30.00R
SOUTH ST PAUL  LGT RAIN  71  70  99 CALM      29.97R
LAKE ELMO      PTSUNNY   70  70 100 SW5       30.00R
$$
MNZ001>005-007-008-013>017-022>024-027-028-261300-
   Northwest Minnesota

CITY           SKY/WX    TMP DP  RH WIND       PRES   REMARKS
BEMIDJI        MOCLDY    60  56  87 NW3       30.00S
HALLOCK        CLEAR     61  57  88 NW6       29.99S
ROSEAU         CLEAR     61  55  82 W6        29.98S
WARROAD        SUNNY     59  55  88 W7        29.98R
CROOKSTON      PTCLDY    59  57  94 NW6       30.01R
FOSSTON        PTCLDY    59  55  88 CALM      30.01S
DETROIT LAKES  PTCLDY    63  59  88 CALM      30.03S
MOORHEAD       MOCLDY    61  57  88 CALM      30.03R
PARK RAPIDS    MOCLDY    60  56  86 NW3       30.01S
MAHNOMEN       FAIR      57  55  93 SW3       30.01S
$$
MNZ006-009>011-018-025>026-261300-
   North Central Minnesota

CITY           SKY/WX    TMP DP  RH WIND       PRES   REMARKS
BAUDETTE       SUNNY     60  57  89 W6        29.95S
FLAG ISLAND    SUNNY     63  59  88 W12       29.94S
INTL FALLS     SUNNY     61  57  87 NW6       29.94S
6HR MIN TEMP:  55; 6HR MAX TEMP:  64;

WASKISH        SUNNY     64  59  82 NW9       29.97R
BIG FORK       CLOUDY    57  57 100 CALM      29.97S
LONGVILLE      CLOUDY    63  59  88 W3        30.00R
GRAND RAPIDS   PTSUNNY   64  60  87 SW3       30.01R
CRANE LAKE     SUNNY     54  52  94 CALM      29.95S
ORR            SUNNY     57  55  94 NW3       29.94R
COOK             N/A     61  57  88 CALM      29.96S
WALKER         FAIR      60  56  89 W3        30.00S
$$
MNZ012-019>021-037-261300-
   Northeast Minnesota

CITY           SKY/WX    TMP DP  RH WIND       PRES   REMARKS
DULUTH         CLOUDY    64  63  96 W5        29.99R
6HR MIN TEMP:  64; 6HR MAX TEMP:  71;

ELY            MOSUNNY   63  57  82 NW5       29.94S
HIBBING        MOSUNNY   60  59  96 SW3       29.98R
EVELETH        PTSUNNY   61  57  84 SW5       29.98R
DULUTH HARBOR  CLOUDY    68  66  94 W5        29.98R
TWO HARBORS    CLOUDY    66  63  88 W3        29.96R
GRAND MARAIS     N/A     64  62  93 CALM      29.90R
G MARAIS ARPRT PTSUNNY   61  55  82 CALM      29.94R
$$
MNZ029>031-032-039>041-046>048-054>057-064-261300-
   West Central Minnesota

CITY           SKY/WX    TMP DP  RH WIND       PRES   REMARKS
FERGUS FALLS   CLOUDY    66  57  72 CALM      30.00R
WHEATON        MOCLDY    66  63  88 CALM      30.04R
MORRIS         CLOUDY    70  68  94 CALM      30.01R
ALEXANDRIA     CLOUDY    68  59  73 CALM      30.03R
ELBOW LAKE     FAIR      65  62  87 CALM      30.02R
WADENA         CLOUDY    61  61 100 N3        30.00S
GLENWOOD       CLOUDY    66  64  94 CALM      30.03R
APPLETON       CLOUDY    72  68  88 N7        30.00R
BENSON         CLOUDY    72  66  83 NE6       30.02R
ORTONVILLE     LGT RAIN  70  66  88 MISG      30.00S
MADISON        CLOUDY    73  73 100 N6        30.00S FOG
WILLMAR        MOCLDY    72  72 100 N6        30.02R
$$
MNZ033>034-036-042>043-049>051-058-059-261300-
   Central Minnesota

CITY           SKY/WX    TMP DP  RH WIND       PRES   REMARKS
ST CLOUD       CLOUDY    69  68  96 N3        29.99R
6HR MIN TEMP:  69; 6HR MAX TEMP:  71; 6HR PCP:  0.05;

SAUK CENTRE    FAIR      67  61  80 CALM      30.03R
PAYNESVILLE    CLOUDY    70  66  86 N5        30.03R
AITKIN         CLOUDY    61  59  94 CALM      29.99S
PINE RIVER     MOCLDY    63  59  88 MISG      30.03S
BRAINERD       CLOUDY    66  62  87 CALM      30.00R
STAPLES        CLOUDY    63  61  94 CALM      30.01S
LONG PRAIRIE   FAIR      64  59  82 CALM      30.01R
LITTLE FALLS   CLOUDY    66  61  82 CALM      30.00R
LITCHFIELD     CLOUDY    72  72 100 CALM      30.01R
BUFFALO        CLOUDY    70  66  88 NW3       29.99R
MAPLE LAKE     MOCLDY    71  69  95 CALM      30.01R
HUTCHINSON     CLOUDY    70  69  98 N7        30.00R
$$
MNZ037-044-045-052-053-261300-
   East Central Minnesota

CITY           SKY/WX    TMP DP  RH WIND       PRES   REMARKS
PRINCETON      LGT RAIN  72  68  88 N6        29.97F
MORA             N/A     64  64 100 CALM      30.01S FOG
CAMBRIDGE      CLOUDY    72  64  78 CALM      29.97R
RUSH CITY      RAIN      69  67  93 N6        29.99F
MOOSE LAKE     CLOUDY    63  63 100 CALM      29.99R FOG
HINCKLEY       CLOUDY    66  66 100 CALM      29.99F FOG
CLOQUET        CLOUDY    66  63  88 CALM      29.99S
MCGREGOR       CLOUDY    64  61  88 CALM      30.00S
$$
MNZ071>073-080-081-089-090-097-098-261300-
   Southwest Minnesota

CITY           SKY/WX    TMP DP  RH WIND       PRES   REMARKS
MONTEVIDEO     CLOUDY    72  66  83 N6        30.00R
GRANITE FALLS  CLOUDY    71  70  96 SW3       30.03R
CANBY          CLOUDY    71  70  95 CALM      30.02S
MARSHALL       CLOUDY    70  69  97 NW6       30.01R
REDWOOD FALLS  CLOUDY    71  68  90 CALM      29.99R
OLIVIA         CLOUDY    70  68  94 S3        30.00R
PIPESTONE      CLOUDY    72  66  83 CALM      30.02R
WINDOM         LGT RAIN  70  66  88 CALM      30.02R
WORTHINGTON    LGT RAIN  69  67  93 CALM      30.04R
JACKSON        DRIZZLE   70  66  88 CALM      30.02F
TRACY          CLOUDY    70  70  99 S6        30.01S
SLAYTON        HVY RAIN  67  66  94 CALM      30.03R
$$
MNZ065>067-074>077-082>085-091>093-261300-
   South Central Minnesota

CITY           SKY/WX    TMP DP  RH WIND       PRES   REMARKS
MANKATO        LGT RAIN  71  69  93 SE5       30.00R
NEW ULM        CLOUDY    72  70  94 SE5       30.00R
ST JAMES       DRIZZLE   72  70  94 CALM      30.02R
FAIRMONT       CLOUDY    73  70  90 CALM      30.01R
GLENCOE        CLOUDY    71  71 100 CALM      29.98S
FARIBAULT      CLOUDY    70  70 100 E3        30.00F
OWATONNA       CLOUDY    70  66  88 S10       30.04R
WASECA         LGT RAIN  70  68  94 E10       30.00F
ALBERT LEA     LGT RAIN  73  70  88 N12       30.03R
$$
MNZ078>079-086>088-094>096-261300-
   Southeast Minnesota

CITY           SKY/WX    TMP DP  RH WIND       PRES   REMARKS
ROCHESTER      CLOUDY    70  68  93 NE8       30.05R
6HR MIN TEMP:  70; 6HR MAX TEMP:  73; 6HR PCP: TRACE;

RED WING       LGT RAIN  70  66  88 SE7       29.98S
STANTON        CLOUDY    69  67  92 S9        30.00R
DODGE CENTER   LGT RAIN  68  66  94 E5        30.03R
WINONA         LGT RAIN  72  68  88 NW10G18   30.03R
AUSTIN         CLOUDY    72  68  88 NE6G16    30.03R
PRESTON        CLOUDY    70  66  88 N3        30.05R
$$
ABBREVIATIONS USED IN REMARKS
   TC - TEMPERATURES IN CELSIUS
  WCI - WIND CHILL INDEX
   HX - HEAT INDEX
  VSB - VISIBILITY
$$




USA.gov is the U.S. government's official web portal to all federal, state and local government web resources and services.